Satellite: NOAA-11
Catalog number: 19531
Epoch time: 07186.30620437
Element set: 714
Inclination: 098.8125 deg
RA of node: 275.2452 deg
Eccentricity: 0.0011405
Arg of perigee: 343.8518 deg
Mean anomaly: 016.2330 deg
Mean motion: 14.14847217 rev/day
Decay rate: 1.25e-06 rev/day^2
Epoch rev: 96871
Checksum: 286
Satellite: NOAA-12
Catalog number: 21263
Epoch time: 07186.27141053
Element set: 210
Inclination: 098.7519 deg
RA of node: 183.4821 deg
Eccentricity: 0.0013636
Arg of perigee: 057.9925 deg
Mean anomaly: 302.2586 deg
Mean motion: 14.25541603 rev/day
Decay rate: -2.2e-07 rev/day^2
Epoch rev: 83882
Checksum: 289
Satellite: MET-3/5
Catalog number: 21655
Epoch time: 07186.78495782
Element set: 288
Inclination: 082.5557 deg
RA of node: 349.8022 deg
Eccentricity: 0.0013525
Arg of perigee: 156.8616 deg
Mean anomaly: 203.3118 deg
Mean motion: 13.17011893 rev/day
Decay rate: 5.1e-07 rev/day^2
Epoch rev: 76385
Checksum: 324
Satellite: MET-2/21
Catalog number: 22782
Epoch time: 07185.65232790
Element set: 0869
Inclination: 082.5466 deg
RA of node: 028.0583 deg
Eccentricity: 0.0022198
Arg of perigee: 183.2719 deg
Mean anomaly: 176.8293 deg
Mean motion: 13.83618873 rev/day
Decay rate: -6.0e-08 rev/day^2
Epoch rev: 69893
Checksum: 352
Satellite: OKEAN-4
Catalog number: 23317
Epoch time: 07186.47127846
Element set: 307
Inclination: 082.5401 deg
RA of node: 279.4754 deg
Eccentricity: 0.0021826
Arg of perigee: 187.9443 deg
Mean anomaly: 172.1410 deg
Mean motion: 14.82515133 rev/day
Decay rate: 4.0e-07 rev/day^2
Epoch rev: 68676
Checksum: 301
Satellite: NOAA-14
Catalog number: 23455
Epoch time: 07186.48087056
Element set: 694
Inclination: 098.9884 deg
RA of node: 252.7632 deg
Eccentricity: 0.0010092
Arg of perigee: 053.1018 deg
Mean anomaly: 307.1080 deg
Mean motion: 14.13720783 rev/day
Decay rate: -2.43e-06 rev/day^2
Epoch rev: 64522
Checksum: 300
Satellite: SICH-1
Catalog number: 23657
Epoch time: 07185.78160631
Element set: 107
Inclination: 082.5263 deg
RA of node: 061.0665 deg
Eccentricity: 0.0023527
Arg of perigee: 181.3349 deg
Mean anomaly: 178.7807 deg
Mean motion: 14.81497954 rev/day
Decay rate: 3.04e-06 rev/day^2
Epoch rev: 63863
Checksum: 316
Satellite: NOAA-15
Catalog number: 25338
Epoch time: 07186.08104307
Element set: 55
Inclination: 098.5294 deg
RA of node: 182.2585 deg
Eccentricity: 0.0010295
Arg of perigee: 343.4897 deg
Mean anomaly: 016.5958 deg
Mean motion: 14.24652697 rev/day
Decay rate: 1.63e-06 rev/day^2
Epoch rev: 47523
Checksum: 326
Satellite: RESURS
Catalog number: 25394
Epoch time: 07186.75652544
Element set: 680
Inclination: 098.4386 deg
RA of node: 240.5506 deg
Eccentricity: 0.0002025
Arg of perigee: 108.1753 deg
Mean anomaly: 251.9646 deg
Mean motion: 14.24139856 rev/day
Decay rate: .00000000 rev/day^2
Epoch rev: 46699
Checksum: 303
Satellite: FENGYUN1
Catalog number: 25730
Epoch time: 07186.47676021
Element set: 161
Inclination: 098.6873 deg
RA of node: 169.6496 deg
Eccentricity: 0.0021964
Arg of perigee: 076.4525 deg
Mean anomaly: 283.9082 deg
Mean motion: 14.07543903 rev/day
Decay rate: 1.02e-06 rev/day^2
Epoch rev: 42004
Checksum: 304
Satellite: OKEAN-0
Catalog number: 25860
Epoch time: 07185.61661931
Element set: 0095
Inclination: 097.7299 deg
RA of node: 187.0497 deg
Eccentricity: 0.0001228
Arg of perigee: 035.8250 deg
Mean anomaly: 324.3039 deg
Mean motion: 14.73461580 rev/day
Decay rate: 5.6e-07 rev/day^2
Epoch rev: 42806
Checksum: 309
Satellite: NOAA-16
Catalog number: 26536
Epoch time: 07186.11200569
Element set: 468
Inclination: 099.1163 deg
RA of node: 163.3653 deg
Eccentricity: 0.0011361
Arg of perigee: 120.3346 deg
Mean anomaly: 239.8937 deg
Mean motion: 14.12438023 rev/day
Decay rate: 8.5e-07 rev/day^2
Epoch rev: 34963
Checksum: 298
Satellite: NOAA-17
Catalog number: 27453
Epoch time: 07186.43760383
Element set: 480
Inclination: 098.5784 deg
RA of node: 255.3014 deg
Eccentricity: 0.0012353
Arg of perigee: 045.8159 deg
Mean anomaly: 314.4039 deg
Mean motion: 14.23892469 rev/day
Decay rate: 2.80e-06 rev/day^2
Epoch rev: 26131
Checksum: 309
Satellite: NOAA-18
Catalog number: 28654
Epoch time: 07186.47648988
Element set: 16
Inclination: 098.8289 deg
RA of node: 127.4531 deg
Eccentricity: 0.0013712
Arg of perigee: 213.6771 deg
Mean anomaly: 146.3541 deg
Mean motion: 14.11075641 rev/day
Decay rate: 1.47e-06 rev/day^2
Epoch rev: 10943
Checksum: 318
/EX
SB KEPS @ AMSAT $ORB07186.M
Orbital Elements 07186.MISC
HR AMSAT ORBITAL ELEMENTS FOR MANNED AND MISCELLANEOUS SATELLITES
FROM WA5QGD FORT WORTH,TX July 5, 2007
Send SUBSCRIBE KEPS/UNSUBSCRIBE KEPS to majordomo at amsat.org only
BID: ORB07186.M
TO ALL RADIO AMATEURS BT
Satellite: HUBBLE
Catalog number: 20580
Epoch time: 07185.96971040
Element set: 0922
Inclination: 028.4681 deg
RA of node: 074.1658 deg
Eccentricity: 0.0003630
Arg of perigee: 278.0038 deg
Mean anomaly: 082.0140 deg
Mean motion: 15.00256368 rev/day
Decay rate: 2.59e-06 rev/day^2
Epoch rev: 74263
Checksum: 283
Satellite: UARS
Catalog number: 21701
Epoch time: 07185.90617504
Element set: 0123
Inclination: 056.9751 deg
RA of node: 237.0307 deg
Eccentricity: 0.0087980
Arg of perigee: 223.5831 deg
Mean anomaly: 135.8255 deg
Mean motion: 15.48418341 rev/day
Decay rate: 2.662e-05 rev/day^2
Epoch rev: 86849
Checksum: 308
Satellite: PO-34
Catalog number: 25520
Epoch time: 07185.87221578
Element set: 771
Inclination: 028.4603 deg
RA of node: 350.3778 deg
Eccentricity: 0.0005589
Arg of perigee: 090.7259 deg
Mean anomaly: 269.3979 deg
Mean motion: 15.17016714 rev/day
Decay rate: 4.16e-06 rev/day^2
Epoch rev: 48021
Checksum: 326
Satellite: ISS
Catalog number: 25544
Epoch time: 07186.99191168
Element set: 526
Inclination: 051.6357 deg
RA of node: 006.7009 deg
Eccentricity: 0.0008306
Arg of perigee: 038.6485 deg
Mean anomaly: 044.4633 deg
Mean motion: 15.78696615 rev/day
Decay rate: 1.6558e-04 rev/day^2
Epoch rev: 49374
Checksum: 336
Satellite: OO-38
Catalog number: 26063
Epoch time: 07185.86961842
Element set: 0952
Inclination: 100.2266 deg
RA of node: 191.7567 deg
Eccentricity: 0.0037218
Arg of perigee: 109.5637 deg
Mean anomaly: 250.9567 deg
Mean motion: 14.35809806 rev/day
Decay rate: -1.1e-07 rev/day^2
Epoch rev: 38959
Checksum: 340
Satellite: UWE-1
Catalog number: 28892
Epoch time: 07186.65339348
Element set: 788
Inclination: 098.1302 deg
RA of node: 082.9313 deg
Eccentricity: 0.0018537
Arg of perigee: 056.9601 deg
Mean anomaly: 303.3343 deg
Mean motion: 14.59518966 rev/day
Decay rate: 6.6e-07 rev/day^2
Epoch rev: 8990
Checksum: 338
Satellite: CO-58
Catalog number: 28895
Epoch time: 07186.70002984
Element set: 767
Inclination: 098.1313 deg
RA of node: 083.1950 deg
Eccentricity: 0.0018933
Arg of perigee: 056.9237 deg
Mean anomaly: 303.3780 deg
Mean motion: 14.59565890 rev/day
Decay rate: 1.61e-06 rev/day^2
Epoch rev: 8979
Checksum: 351
Satellite: NCUBE2
Catalog number: 28897
Epoch time: 07186.29295078
Element set: 294
Inclination: 098.1304 deg
RA of node: 082.7512 deg
Eccentricity: 0.0018345
Arg of perigee: 058.8075 deg
Mean anomaly: 301.4917 deg
Mean motion: 14.59728060 rev/day
Decay rate: 9.2e-07 rev/day^2
Epoch rev: 8201
Checksum: 318
Satellite: NMARS
Catalog number: 29662
Epoch time: 07126.39603970
Element set: 263
Inclination: 051.6121 deg
RA of node: 302.3682 deg
Eccentricity: 0.0004459
Arg of perigee: 252.1654 deg
Mean anomaly: 110.7411 deg
Mean motion: 16.47981436 rev/day
Decay rate: 7.031946e-02 rev/day^2
Epoch rev: 2165
Checksum: 289
Satellite: FCAL
Catalog number: 29667
Epoch time: 07186.69753801
Element set: 202
Inclination: 051.6329 deg
RA of node: 357.1721 deg
Eccentricity: 0.0014299
Arg of perigee: 060.6298 deg
Mean anomaly: 299.6133 deg
Mean motion: 15.88823328 rev/day
Decay rate: 1.5893e-04 rev/day^2
Epoch rev: 3094
Checksum: 333
Satellite: FALCON
Catalog number: 30776
Epoch time: 07185.92678199
Element set: 0088
Inclination: 035.4328 deg
RA of node: 105.1204 deg
Eccentricity: 0.0001803
Arg of perigee: 281.9933 deg
Mean anomaly: 078.0581 deg
Mean motion: 15.02729562 rev/day
Decay rate: 1.49e-06 rev/day^2
Epoch rev: 01772
Checksum: 304
Satellite: MAST
Catalog number: 31126
Epoch time: 07185.74514332
Element set: 0074
Inclination: 098.0815 deg
RA of node: 258.2487 deg
Eccentricity: 0.0094416
Arg of perigee: 331.8343 deg
Mean anomaly: 027.7726 deg
Mean motion: 14.53350090 rev/day
Decay rate: 3.92e-06 rev/day^2
Epoch rev: 01140
Checksum: 280
Satellite: CAPE1
Catalog number: 31130
Epoch time: 07186.44570039
Element set: 60
Inclination: 098.0830 deg
RA of node: 258.7396 deg
Eccentricity: 0.0102526
Arg of perigee: 330.1571 deg
Mean anomaly: 029.3798 deg
Mean motion: 14.51863464 rev/day
Decay rate: 7.0e-08 rev/day^2
Epoch rev: 1126
Checksum: 281
/EX
More information about the Keps
mailing list